K0HYD Weather Reports


Display with metric or nautical units.
time (UTC)temp
F
wind
direction
speed
MPH
gust
MPH
rain 1hr
in
rain 24hr
in
rain mn
in
humidity
%
barometer
mb
20260506114243 43 32 0.0 0.0 0.00 0.00 0.17 96 1018.7
20260506112742 43 23 0.0 0.0 0.00 0.00 0.17 96 1018.1
20260506111241 43 308 0.0 0.0 0.00 0.00 0.17 96 1017.9
20260506105740 43 13 0.0 0.0 0.00 0.00 0.17 96 1017.7
20260506104239 43 46 0.0 0.0 0.00 0.00 0.17 96 1017.4
20260506102738 42 19 0.0 0.0 0.00 0.00 0.17 96 1017.6
20260506101237 42 27 0.0 0.0 0.00 0.00 0.17 96 1017.0
20260506094235 43 13 0.0 0.0 0.00 0.00 0.17 96 1017.2
20260506092734 43 39 0.0 1.0 0.00 0.00 0.17 96 1017.2
20260506091233 43 18 0.0 1.0 0.00 0.00 0.17 96 1017.4
20260506084232 43 349 0.0 1.0 0.00 0.00 0.17 96 1018.0
20260506082730 43 47 0.0 1.0 0.00 0.00 0.17 95 1017.7
20260506072727 44 41 0.0 1.0 0.00 0.00 0.12 93 1016.7
20260506071226 44 72 0.0 1.0 0.00 0.00 0.12 93 1016.1
20260506061222 45 51 0.0 1.0 0.00 0.00 0.03 88 1016.5
20260506051218 48 22 0.0 1.0 0.00 0.00 0.00 79 1014.6
20260506044216 49 40 0.0 1.0 0.00 0.00 0.01 76 1015.2
20260506035713 49 55 0.0 1.0 0.00 0.00 0.01 81 1014.7
20260506034212 49 53 0.0 0.0 0.00 0.00 0.01 85 1014.7
20260506032711 48 41 0.0 0.0 0.00 0.00 0.01 84 1014.8
20260506024209 48 68 0.0 1.0 0.00 0.00 0.01 84 1014.2
20260506022708 48 49 0.0 1.0 0.00 0.00 0.01 85 1014.0
20260506021207 49 51 0.0 1.0 0.00 0.00 0.01 83 1014.0
20260506015706 49 65 0.0 1.0 0.00 0.00 0.01 81 1013.7
20260506014205 49 50 0.0 1.0 0.00 0.00 0.01 77 1013.5
20260506012704 50 34 0.0 1.0 0.00 0.00 0.01 75 1013.0
20260506011203 50 346 1.0 1.0 0.00 0.00 0.01 73 1013.0
20260506005702 51 75 0.0 1.0 0.00 0.00 0.01 69 1012.6
20260506004201 51 28 0.0 1.0 0.00 0.00 0.01 67 1012.2
20260506001159 52 27 0.0 0.0 0.00 0.00 0.01 74 1011.8
20260505235658 52 53 0.0 1.0 0.00 0.00 0.01 73 1011.6
20260505234157 52 62 0.0 1.0 0.00 0.00 0.01 73 1011.6
20260505232656 52 58 0.0 1.0 0.00 0.00 0.01 72 1011.3
20260505231155 52 1 0.0 1.0 0.00 0.00 0.01 72 1011.3
20260505225654 52 70 0.0 1.0 0.00 0.00 0.01 72 1010.9
20260505224153 52 44 0.0 3.0 0.00 0.00 0.01 70 1011.1
20260505221151 52 23 1.0 5.0 0.00 0.00 0.01 69 1010.9
20260505215650 53 86 1.0 3.0 0.00 0.00 0.01 68 1011.1
20260505212648 52 65 1.0 1.0 0.00 0.00 0.01 69 1011.5
20260505205646 52 5 0.0 6.0 0.00 0.00 0.01 69 1011.4
20260505204146 52 34 7.0 9.0 0.00 0.00 0.01 72 1011.3
20260505202645 51 78 0.0 3.0 0.00 0.00 0.01 73 1011.4
20260505195642 51 58 0.0 3.0 0.00 0.00 0.01 70 1011.6
20260505194142 52 22 0.0 9.0 0.00 0.00 0.01 69 1011.3
20260505192640 52 25 2.0 5.0 0.00 0.00 0.01 71 1011.1
20260505191140 51 55 0.0 7.0 0.00 0.00 0.01 73 1011.1
20260505185639 51 53 6.0 7.0 0.00 0.00 0.01 75 1010.9
20260505184138 51 53 1.0 6.0 0.00 0.00 0.01 73 1010.8
20260505182637 52 43 1.0 11.0 0.00 0.00 0.01 71 1010.7
20260505181136 51 33 1.0 7.0 0.00 0.00 0.01 71 1010.7
20260505175635 51 43 0.0 15.0 0.00 0.00 0.01 72 1010.5
20260505174134 51 61 0.0 10.0 0.00 0.00 0.01 72 1010.8
20260505172633 50 53 1.0 7.0 0.00 0.00 0.01 75 1010.5
20260505171132 49 49 1.0 12.0 0.00 0.00 0.01 80 1010.7
20260505164130 51 43 0.0 16.0 0.00 0.00 0.00 66 1010.3
20260505162629 51 43 7.0 18.0 0.00 0.00 0.00 67 1010.4
20260505161128 52 30 0.0 13.0 0.00 0.00 0.00 66 1010.2
20260505152625 53 72 0.0 15.0 0.00 0.00 0.00 61 1009.3
20260505151124 53 12 0.0 14.0 0.00 0.00 0.00 62 1008.8
20260505124115 53 44 11.0 15.0 0.00 0.00 0.00 58 1006.8
20260505122614 53 11 0.0 7.0 0.00 0.00 0.00 58 1006.4
20260505115612 53 43 0.0 13.0 0.00 0.00 0.00 58 1006.0